This demonstration page uses our WeatherBlox Daily Observations layout. Learn more.

Hourly Observations for March 22, 2016

Temp ( °F °C ) Dew Point ( °F °C ) Humidity (%) Winds ( mph kmh ) Pressure ( in mb ) Visibility ( mi km ) Precip ( " mm )
12:15 am 00:15 Clear 59 14.8 24 -4.5 26 26 SW 12 19 29.62 1003 10 16.0934 0 0
12:35 am 00:35 Clear 57 14.1 24 -4.6 27 27 WSW 8 13 29.62 1003 10 16.0934 0 0
12:55 am 00:55 Clear 56 13.6 24 -4.6 28 28 WSW 9 15 29.62 1003 10 16.0934 0 0
1:15 am 01:15 Clear 59 14.9 23 -5 25 25 SW 8 13 29.62 1003 10 16.0934 0 0
1:35 am 01:35 Clear 51 10.7 23 -5.1 33 33 S 9 15 29.65 1004 10 16.0934 0 0
1:55 am 01:55 Clear 49 9.2 23 -4.8 37 37 SSW 10 17 29.68 1005 10 16.0934 0 0
2:15 am 02:15 Clear 50 10 24 -4.6 36 36 S 10 17 29.65 1004 10 16.0934 0 0
2:35 am 02:35 Clear 51 10.5 24 -4.5 35 35 SSW 10 17 29.65 1004 10 16.0934 0 0
2:55 am 02:55 Clear 51 10.3 24 -4.5 35 35 SSW 10 17 29.62 1003 10 16.0934 0 0
3:15 am 03:15 Clear 52 11.2 25 -4 35 35 SSW 9 15 29.62 1003 10 16.0934 0 0
3:35 am 03:35 Clear 53 11.5 25 -4 34 34 SSW 9 15 29.62 1003 10 16.0934 0 0
3:55 am 03:55 Clear 52 11 25 -4 35 35 SW 9 15 29.59 1002 10 16.0934 0 0
4:15 am 04:15 Clear 52 11 25 -3.7 36 36 SSW 8 13 29.59 1002 10 16.0934 0 0
4:35 am 04:35 Clear 53 11.5 26 -3.6 35 35 SSW 8 13 29.59 1002 10 16.0934 0 0
4:55 am 04:55 Clear 50 10.1 26 -3.3 39 39 SSW 7 11 29.59 1002 10 16.0934 0 0
5:15 am 05:15 Clear 49 9.5 26 -3.2 41 41 SSW 8 13 29.59 1002 10 16.0934 0 0
5:35 am 05:35 Clear 45 7.4 26 -3.3 47 47 SW 5 7 29.59 1002 10 16.0934 0 0
5:55 am 05:55 Clear 45 7 26 -3.2 49 49 SW 3 6 29.59 1002 10 16.0934 0 0
6:15 am 06:15 Clear 46 8 26 -3.1 46 46 SW 5 7 29.59 1002 10 16.0934 0 0
6:35 am 06:35 Clear 43 6.3 26 -3.3 51 51 SW 3 6 29.59 1002 10 16.0934 0 0
6:55 am 06:55 Clear 42 5.3 26 -3.5 53 53 Calm 29.59 1002 10 16.0934 0 0
7:15 am 07:15 Clear 39 3.8 24 -4.2 56 56 Calm 29.62 1003 10 16.0934 0 0
7:35 am 07:35 Clear 38 3.6 25 -4 58 58 Calm 29.62 1003 10 16.0934 0 0
7:55 am 07:55 Sunny 38 3.5 25 -3.8 59 59 Calm 29.62 1003 10 16.0934 0 0
8:15 am 08:15 Sunny 37 3 26 -3.6 62 62 Calm 29.62 1003 10 16.0934 0 0
8:35 am 08:35 Sunny 40 4.2 28 -2.3 63 63 Calm 29.59 1002 7 11.26538 0 0
8:55 am 08:55 Sunny 43 5.9 29 -1.8 58 58 Calm 29.59 1002 10 16.0934 0 0
9:15 am 09:15 Sunny 46 8 30 -1.3 52 52 SSW 6 9 29.59 1002 10 16.0934 0 0
9:35 am 09:35 Sunny 51 10.3 31 -0.3 48 48 SSW 7 11 29.56 1001 10 16.0934 0 0
9:55 am 09:55 Sunny 52 11 33 0.4 48 48 SSW 8 13 29.56 1001 10 16.0934 0 0
10:15 am 10:15 Sunny 53 11.4 33 0.6 48 48 SSW 7 11 29.56 1001 10 16.0934 0 0
10:35 am 10:35 Sunny 53 11.7 34 1 48 48 SW 6 9 29.56 1001 10 16.0934 0 0
10:55 am 10:55 Sunny 54 12 34 0.9 47 47 WSW 7 11 29.53 1000 10 16.0934 0 0
11:15 am 11:15 Sunny 54 12.3 33 0.6 45 45 W 6 9 29.53 1000 10 16.0934 0 0
11:35 am 11:35 Sunny 55 12.9 33 0.6 43 43 W 6 9 29.5 999 10 16.0934 0 0
11:55 am 11:55 Sunny 59 14.8 33 0.4 38 38 WNW 8 13 29.53 1000 10 16.0934 0 0
12:15 pm 12:15 Sunny 61 16.2 30 -1.3 30 30 N 7 11 29.47 998 10 16.0934 0 0
12:35 pm 12:35 Sunny 63 17.1 27 -2.8 26 26 NNE 6 9 29.47 998 10 16.0934 0 0
12:55 pm 12:55 Sunny 64 17.7 28 -2 26 26 NNE 8 13 29.44 997 10 16.0934 0 0
1:15 pm 13:15 Sunny 64 17.9 28 -2.4 25 25 NNE 8 13 29.44 997 10 16.0934 0 0
1:35 pm 13:35 Sunny 65 18.5 29 -1.8 25 25 NNE 7 11 29.41 996 10 16.0934 0 0
1:55 pm 13:55 Sunny 66 18.9 30 -1.3 26 26 NE 6 9 29.41 996 10 16.0934 0 0
2:15 pm 14:15 Sunny 68 20 30 -1 24 24 E 9 15 29.38 995 10 16.0934 0 0
2:35 pm 14:35 Sunny 68 20.2 30 -1.2 24 24 ENE 10 17 29.38 995 10 16.0934 0 0
2:55 pm 14:55 Sunny 69 20.6 30 -1.2 23 23 ENE 10 17 29.38 995 10 16.0934 0 0
3:15 pm 15:15 Sunny 71 21.6 30 -1.2 22 22 E 9 15 29.32 993 10 16.0934 0 0
3:35 pm 15:35 Sunny 71 21.6 28 -2.2 20 20 E 9 15 29.32 993 10 16.0934 0 0
3:55 pm 15:55 Sunny 71 21.6 28 -2 21 21 ESE 10 17 29.32 993 10 16.0934 0 0
4:15 pm 16:15 Sunny 71 21.5 30 -1.3 22 22 SE 12 19 29.32 993 10 16.0934 0 0
4:35 pm 16:35 Sunny 71 21.4 31 -0.4 23 23 SE 9 15 29.32 993 10 16.0934 0 0
4:55 pm 16:55 Sunny 69 20.6 32 0.1 25 25 ESE 8 13 29.35 994 10 16.0934 0 0
5:15 pm 17:15 Sunny 68 20.2 32 -0.1 26 26 SE 9 15 29.35 994 10 16.0934 0 0
5:35 pm 17:35 Sunny 67 19.7 32 0.1 27 27 ESE 9 15 29.35 994 7 11.26538 0 0
5:55 pm 17:55 Sunny 67 19.3 32 0 27 27 E 7 11 29.35 994 10 16.0934 0 0
6:15 pm 18:15 Sunny 66 18.8 32 0 28 28 E 12 19 29.35 994 10 16.0934 0 0
6:35 pm 18:35 Sunny 65 18.1 33 0.5 31 31 E 6 9 29.35 994 10 16.0934 0 0
6:55 pm 18:55 Sunny 63 17.1 32 0.2 32 32 E 8 13 29.38 995 10 16.0934 0 0
7:15 pm 19:15 Sunny 62 16.6 33 0.7 34 34 E 9 15 29.38 995 10 16.0934 0 0
7:35 pm 19:35 Sunny 58 14.7 33 0.6 38 38 ENE 10 17 29.38 995 10 16.0934 0 0
7:55 pm 19:55 Clear 58 14.3 34 1 41 41 ENE 9 15 29.38 995 10 16.0934 0 0
8:15 pm 20:15 Clear 58 14.4 34 1.2 41 41 ENE 13 20 29.38 995 10 16.0934 0 0
8:35 pm 20:35 Clear 57 14.1 35 1.5 43 43 E 13 20 29.38 995 10 16.0934 0 0
8:55 pm 20:55 Clear 57 14.1 35 1.6 43 43 E 15 24 29.38 995 10 16.0934 0 0
9:15 pm 21:15 Clear 56 13.6 35 1.9 45 45 E 14 22 29.41 996 10 16.0934 0 0
9:35 pm 21:35 Clear 56 13.6 36 2 46 46 E 14 22 29.44 997 10 16.0934 0 0
9:55 pm 21:55 Clear 55 13 36 2 47 47 ENE 16 26 29.41 996 10 16.0934 0 0
10:15 pm 22:15 Clear 55 12.6 36 2 49 49 ENE 15 24 29.41 996 10 16.0934 0 0
10:35 pm 22:35 Partly Cloudy 55 12.7 36 2.1 49 49 E 20 31 29.41 996 10 16.0934 0 0
10:55 pm 22:55 Clear 55 12.7 36 2.2 49 49 E 20 31 29.41 996 10 16.0934 0 0
11:15 pm 23:15 Clear 55 12.7 36 2.3 49 49 ENE 18 30 29.41 996 10 16.0934 0 0
11:35 pm 23:35 Clear 54 12 36 2.3 52 52 NE 20 31 29.38 995 10 16.0934 0 0
11:55 pm 23:55 Partly Cloudy 53 11.6 36 2.3 53 53 ENE 16 26 29.38 995 10 16.0934 0 0

Powered by AerisWeather